Olympia, WA
on Monday, December 3, 2012

Monday
Previous Day Next Day
Daily Summary
 ActualAverageRecord
Temperature
Mean Temperature °F 40°F  
Max Temperature 50°F 46°F 59°F (1982)
Min Temperature 45°F 33°F 17°F (1994)
Degree Days
Heating Degree Days 17 26  
Month to date heating degree days 53 76  
Since 1 July heating degree days 1440 1521  
Cooling Degree Days 0 0  
Month to date cooling degree days 0 0  
Year to date cooling degree days 82 106  
Moisture
Dew Point 45°F   
Average Humidity 93    
Maximum Humidity 100    
Minimum Humidity 86    
Precipitation
Precipitation 0.69 in 0.28 in 3.19 in (2007)
Month to date precipitation 2.15 0.85  
Year to date precipitation 52.00 43.39  
Wind
Wind Speed 9 mph   
Max Wind Speed 16 mph   
Max Gust Speed 22 mph   
Visibility 7 miles   
Events Rain   

Key: T is trace of precipitation, MM is missing value
Source: NWS Daily Summary
Time(PST)TemperatureDew PointHumidity Pressure Visibility Wind DirectionWind SpeedGust SpeedPrecipitationEvents Conditions
12:17 AM 46.4°F 44.6°F 93% 29.81 in 6.0 miles South 8.1 mph - 0.02 in Rain Light Rain
12:47 AM 46.4°F 44.6°F 93% 29.81 in 10.0 miles South 13.8 mph - 0.02 in   Overcast
12:54 AM 46.9°F 45.0°F 93% 29.82 in 10.0 miles South 11.5 mph - 0.02 in   Overcast
1:37 AM 46.4°F 44.6°F 93% 29.84 in 2.5 miles WSW 5.8 mph - 0.04 in Rain Heavy Rain
1:54 AM 46.9°F 44.1°F 90% 29.85 in 7.0 miles SSW 12.7 mph 19.6 mph 0.11 in Rain Light Rain
2:11 AM 46.4°F 44.6°F 93% 29.85 in 10.0 miles South 10.4 mph - 0.00 in   Mostly Cloudy
2:54 AM 46.0°F 44.1°F 93% 29.87 in 8.0 miles South 12.7 mph - 0.01 in Rain Light Rain
3:41 AM 46.4°F 44.6°F 93% 29.87 in 8.0 miles SSW 11.5 mph - 0.02 in Rain Light Rain
3:54 AM 46.0°F 44.1°F 93% 29.87 in 10.0 miles SSW 10.4 mph - 0.02 in Rain Light Rain
4:33 AM 46.4°F 44.6°F 93% 29.87 in 10.0 miles SSW 13.8 mph - 0.00 in   Overcast
4:54 AM 46.0°F 44.1°F 93% 29.89 in 5.0 miles SSW 12.7 mph - 0.01 in Rain Rain
5:14 AM 46.4°F 44.6°F 93% 29.90 in 4.0 miles SW 8.1 mph - 0.05 in Rain Rain
5:29 AM 46.4°F 44.6°F 93% 29.92 in 2.5 miles West 10.4 mph - 0.10 in Rain Rain
5:43 AM 46.4°F 42.8°F 87% 29.91 in 6.0 miles SW 8.1 mph 17.3 mph 0.15 in Rain Light Rain
5:54 AM 46.0°F 43.0°F 89% 29.92 in 8.0 miles SW 9.2 mph - 0.16 in Rain Light Rain
6:54 AM 44.6°F 42.8°F 93% 29.92 in 10.0 miles SSW 10.4 mph - N/A   Overcast
7:42 AM 44.6°F 42.8°F 93% 29.94 in 10.0 miles SSW 6.9 mph - 0.00 in   Overcast
7:54 AM 45.0°F 43.0°F 93% 29.95 in 10.0 miles South 4.6 mph - 0.00 in   Overcast
8:54 AM 45.0°F 43.0°F 93% 29.97 in 9.0 miles South 11.5 mph - 0.00 in Rain Light Rain
9:54 AM 46.0°F 45.0°F 96% 29.99 in 10.0 miles South 6.9 mph - 0.00 in   Mostly Cloudy
10:54 AM 48.2°F 46.4°F 93% 30.00 in 6.0 miles South 5.8 mph - N/A Rain Light Rain
11:54 AM 48.9°F 46.0°F 90% 29.99 in 6.0 miles South 10.4 mph - 0.01 in   Overcast
12:27 PM 48.2°F 46.4°F 93% 29.98 in 2.5 miles South 6.9 mph - 0.02 in Rain Light Rain
12:42 PM 48.2°F 46.4°F 93% 29.98 in 4.0 miles SSE 6.9 mph - 0.02 in   Overcast
12:54 PM 48.9°F 46.9°F 93% 29.98 in 2.0 miles SSE 8.1 mph - 0.03 in Rain Light Rain
12:56 PM 48.2°F 46.4°F 93% 29.98 in 6.0 miles South 8.1 mph - 0.00 in Rain Light Rain
1:03 PM 48.2°F 46.4°F 93% 29.97 in 6.0 miles SSE 8.1 mph - 0.00 in Rain Light Rain
1:17 PM 48.2°F 48.2°F 100% 29.97 in 6.0 miles South 10.4 mph - 0.01 in Rain Light Rain
1:54 PM 50.0°F 46.9°F 89% 29.96 in 4.0 miles South 10.4 mph 16.1 mph 0.02 in Rain Light Rain
2:54 PM 48.9°F 46.9°F 93% 29.95 in 5.0 miles South 10.4 mph - 0.04 in Rain Light Rain
3:08 PM 48.2°F 46.4°F 93% 29.94 in 6.0 miles South 8.1 mph - 0.00 in Rain Light Rain
3:30 PM 48.2°F 46.4°F 93% 29.94 in 2.5 miles South 8.1 mph - 0.03 in Rain Rain
3:41 PM 48.2°F 46.4°F 93% 29.94 in 2.0 miles South 5.8 mph - 0.05 in Rain Light Rain
3:54 PM 48.9°F 48.0°F 97% 29.94 in 5.0 miles South 5.8 mph - 0.06 in Rain Light Rain
4:10 PM 48.2°F 46.4°F 93% 29.93 in 5.0 miles South 10.4 mph - 0.03 in Rain Light Rain
4:54 PM 48.9°F 46.9°F 93% 29.91 in 10.0 miles South 12.7 mph - 0.04 in Rain Light Rain
5:04 PM 48.2°F 46.4°F 93% 29.91 in 7.0 miles South 11.5 mph - 0.00 in Rain Light Rain
5:54 PM 48.9°F 46.0°F 90% 29.90 in 10.0 miles South 10.4 mph - 0.03 in   Overcast
6:01 PM 48.2°F 46.4°F 93% 29.89 in 10.0 miles South 10.4 mph - N/A   Overcast
6:54 PM 48.9°F 46.0°F 90% 29.88 in 10.0 miles South 10.4 mph - 0.01 in Rain Light Rain
7:54 PM 48.9°F 46.0°F 90% 29.84 in 10.0 miles South 10.4 mph - 0.00 in Rain Light Rain
8:54 PM 48.9°F 45.0°F 86% 29.79 in 10.0 miles SSW 4.6 mph - 0.00 in   Overcast
9:54 PM 46.9°F 45.0°F 93% 29.74 in 10.0 miles West 3.5 mph - N/A   Overcast
10:54 PM 46.0°F 45.0°F 96% 29.69 in 5.0 miles Calm Calm - 0.03 in Rain Light Rain
11:54 PM 46.0°F 45.0°F 96% 29.64 in 5.0 miles Variable 3.5 mph - 0.07 in Rain Light Rain
Moon Phase
Dec. 03 Dec. 06 Dec. 13 Dec. 20 Dec. 28
Sunrise:07:39 AM (PST) Moon Rise:09:27 PM (PST)12/3
Sunset:04:23 PM (PST) Moon Set:10:56 AM (PST)12/3

Copyright © 2014 The Weather Underground, Inc.